• In Russia
  • List of Countries
  • For 7 days
  • Water Temperature
  • Satellite Maps
  • Weather Map
  • Weather Widgets
  • user-avatar
    Login

    Hourly Weather Canberra

    Today, 25 July, Tuesday

    Time Temperature Precipitation Wind Pressure Humidity
    00:00 +4°C° 0 mm 2 mps 712 mmHg 92%
    01:00 +4°C° 0 mm 2 mps 712 mmHg 93%
    02:00 +4°C° 0 mm 2 mps 712 mmHg 93%
    03:00 +4°C° 0 mm 2 mps 712 mmHg 93%
    04:00 +4°C° 0 mm 2 mps 711 mmHg 92%
    05:00 +4°C° 0 mm 2 mps 711 mmHg 92%
    06:00 +3°C° 0 mm 2 mps 712 mmHg 92%
    07:00 +3°C° 0 mm 2 mps 712 mmHg 92%
    08:00 +5°C° 0 mm 2 mps 712 mmHg 85%
    09:00 +7°C° 0 mm 3 mps 712 mmHg 77%
    10:00 +8°C° 0 mm 4 mps 712 mmHg 70%
    11:00 +11°C° 0 mm 4 mps 712 mmHg 64%
    12:00 +12°C° 0 mm 4 mps 712 mmHg 58%
    13:00 +14°C° 0 mm 5 mps 711 mmHg 52%
    14:00 +14°C° 0 mm 5 mps 711 mmHg 54%
    15:00 +14°C° 0 mm 4 mps 710 mmHg 57%
    16:00 +13°C° 0 mm 4 mps 710 mmHg 59%
    17:00 +12°C° 0 mm 4 mps 709 mmHg 65%
    18:00 +11°C° 0 mm 4 mps 709 mmHg 71%
    19:00 +9°C° 0 mm 3 mps 709 mmHg 78%
    20:00 +8°C° 0 mm 4 mps 709 mmHg 75%
    21:00 +10°C° 0 mm 4 mps 708 mmHg 72%
    22:00 +10°C° 0 mm 4 mps 708 mmHg 70%
    23:00 +8°C° 0.6 mm 4 mps 708 mmHg 76%

    Tomorrow, 26 July, Wednesday

    Time Temperature Precipitation Wind Pressure Humidity
    00:00 +8°C° 0.6 mm 4 mps 708 mmHg 83%
    01:00 +7°C° 0.6 mm 4 mps 708 mmHg 90%
    02:00 +7°C° 0.2 mm 4 mps 708 mmHg 90%
    03:00 +7°C° 0.2 mm 4 mps 708 mmHg 90%
    04:00 +7°C° 0.2 mm 4 mps 708 mmHg 91%
    05:00 +7°C° 0 mm 5 mps 708 mmHg 89%
    06:00 +7°C° 0 mm 5 mps 708 mmHg 88%
    07:00 +6°C° 0 mm 5 mps 708 mmHg 87%
    08:00 +7°C° 0 mm 6 mps 709 mmHg 81%
    09:00 +8°C° 0 mm 6 mps 709 mmHg 74%
    10:00 +8°C° 0 mm 7 mps 710 mmHg 68%
    11:00 +9°C° 0 mm 7 mps 709 mmHg 66%
    12:00 +9°C° 0 mm 7 mps 709 mmHg 64%
    13:00 +9°C° 0 mm 7 mps 709 mmHg 62%
    14:00 +9°C° 0 mm 7 mps 709 mmHg 63%
    15:00 +9°C° 0 mm 7 mps 709 mmHg 64%
    16:00 +8°C° 0 mm 6 mps 710 mmHg 64%
    17:00 +7°C° 0 mm 6 mps 710 mmHg 69%
    18:00 +6°C° 0 mm 5 mps 711 mmHg 74%
    19:00 +5°C° 0 mm 4 mps 711 mmHg 79%
    20:00 +5°C° 0 mm 3 mps 712 mmHg 83%
    21:00 +5°C° 0 mm 2 mps 712 mmHg 87%
    22:00 +4°C° 0 mm 2 mps 712 mmHg 91%
    23:00 +4°C° 0 mm 1 mps 713 mmHg 93%

    Day after tomorrow, 27 July, Thursday

    Time Temperature Precipitation Wind Pressure Humidity
    00:00 +4°C° 0 mm 1 mps 713 mmHg 94%
    01:00 +3°C° 0 mm 1 mps 713 mmHg 96%
    02:00 +3°C° 0 mm 1 mps 713 mmHg 96%
    03:00 +3°C° 0 mm 1 mps 713 mmHg 96%
    04:00 +2°C° 0 mm 1 mps 713 mmHg 96%
    05:00 +2°C° 0 mm 1 mps 713 mmHg 96%
    06:00 +2°C° 0 mm 1 mps 714 mmHg 95%
    07:00 +1°C° 0 mm 1 mps 714 mmHg 95%
    08:00 +4°C° 0 mm 1 mps 714 mmHg 84%
    09:00 +6°C° 0 mm 1 mps 715 mmHg 73%
    10:00 +9°C° 0 mm 1 mps 715 mmHg 62%
    11:00 +10°C° 0 mm 1 mps 715 mmHg 56%
    12:00 +10°C° 0 mm 2 mps 714 mmHg 49%
    13:00 +13°C° 0 mm 2 mps 714 mmHg 43%
    14:00 +11°C° 0 mm 3 mps 713 mmHg 46%
    15:00 +11°C° 0 mm 3 mps 713 mmHg 49%
    16:00 +11°C° 0 mm 3 mps 712 mmHg 53%
    17:00 +9°C° 0 mm 3 mps 712 mmHg 63%
    18:00 +7°C° 0 mm 2 mps 712 mmHg 74%
    19:00 +4°C° 0 mm 2 mps 712 mmHg 85%
    20:00 +5°C° 0 mm 2 mps 712 mmHg 83%
    21:00 +5°C° 0 mm 2 mps 712 mmHg 81%
    22:00 +5°C° 0 mm 2 mps 712 mmHg 79%
    23:00 +5°C° 0 mm 2 mps 712 mmHg 78%

    28 July, Friday

    Time Temperature Precipitation Wind Pressure Humidity
    00:00 +4°C° 0 mm 3 mps 711 mmHg 77%
    01:00 +4°C° 0 mm 3 mps 710 mmHg 76%
    02:00 +4°C° 0 mm 3 mps 710 mmHg 75%
    03:00 +4°C° 0 mm 3 mps 710 mmHg 75%
    04:00 +4°C° 0 mm 3 mps 709 mmHg 75%
    05:00 +4°C° 0 mm 3 mps 709 mmHg 74%
    06:00 +5°C° 0 mm 3 mps 710 mmHg 73%
    07:00 +5°C° 0 mm 4 mps 710 mmHg 72%
    08:00 +7°C° 0 mm 4 mps 710 mmHg 67%
    09:00 +8°C° 0 mm 4 mps 710 mmHg 62%
    10:00 +10°C° 0 mm 5 mps 711 mmHg 57%
    11:00 +12°C° 0 mm 5 mps 710 mmHg 52%
    12:00 +13°C° 0 mm 5 mps 710 mmHg 47%
    13:00 +14°C° 0 mm 4 mps 710 mmHg 43%
    14:00 +14°C° 0 mm 4 mps 710 mmHg 44%
    15:00 +14°C° 0 mm 4 mps 710 mmHg 45%
    16:00 +13°C° 0 mm 3 mps 710 mmHg 47%
    17:00 +11°C° 0 mm 3 mps 710 mmHg 56%
    18:00 +9°C° 0 mm 3 mps 711 mmHg 66%
    19:00 +7°C° 0 mm 2 mps 711 mmHg 75%
    20:00 +7°C° 0 mm 2 mps 711 mmHg 78%
    21:00 +6°C° 0 mm 2 mps 712 mmHg 80%
    22:00 +5°C° 0 mm 2 mps 712 mmHg 83%
    23:00 +5°C° 0 mm 2 mps 712 mmHg 80%

    29 July, Saturday

    Time Temperature Precipitation Wind Pressure Humidity
    00:00 +5°C° 0 mm 2 mps 711 mmHg 77%
    01:00 +5°C° 0 mm 2 mps 711 mmHg 74%
    02:00 +5°C° 0 mm 2 mps 711 mmHg 73%
    03:00 +5°C° 0 mm 2 mps 710 mmHg 72%
    04:00 +5°C° 0 mm 2 mps 710 mmHg 71%
    05:00 +5°C° 0 mm 2 mps 710 mmHg 71%
    06:00 +5°C° 0 mm 2 mps 710 mmHg 71%
    07:00 +5°C° 0 mm 2 mps 710 mmHg 72%
    08:00 +8°C° 0 mm 2 mps 710 mmHg 66%
    09:00 +10°C° 0 mm 3 mps 710 mmHg 61%
    10:00 +13°C° 0 mm 4 mps 710 mmHg 55%
    11:00 +15°C° 0 mm 5 mps 709 mmHg 50%
    12:00 +16°C° 0 mm 6 mps 709 mmHg 44%
    13:00 +18°C° 0 mm 7 mps 708 mmHg 39%
    14:00 +18°C° 0 mm 7 mps 708 mmHg 41%
    15:00 +19°C° 0 mm 6 mps 707 mmHg 42%
    16:00 +19°C° 0 mm 6 mps 707 mmHg 44%
    17:00 +16°C° 0 mm 5 mps 707 mmHg 46%
    18:00 +15°C° 0 mm 5 mps 706 mmHg 47%
    19:00 +14°C° 0 mm 5 mps 706 mmHg 48%
    20:00 +14°C° 0 mm 5 mps 706 mmHg 48%
    21:00 +14°C° 0 mm 5 mps 706 mmHg 47%
    22:00 +13°C° 0 mm 5 mps 706 mmHg 47%
    23:00 +13°C° 0 mm 5 mps 705 mmHg 46%

    30 July, Sunday

    Time Temperature Precipitation Wind Pressure Humidity
    00:00 +13°C° 0 mm 5 mps 705 mmHg 46%
    01:00 +13°C° 0 mm 5 mps 705 mmHg 45%
    02:00 +13°C° 0 mm 5 mps 705 mmHg 45%
    03:00 +13°C° 0 mm 5 mps 705 mmHg 45%
    04:00 +13°C° 0 mm 5 mps 705 mmHg 45%
    05:00 +12°C° 0.1 mm 5 mps 705 mmHg 55%
    06:00 +11°C° 0.1 mm 4 mps 705 mmHg 64%
    07:00 +10°C° 0.1 mm 4 mps 706 mmHg 73%
    08:00 +10°C° 0.6 mm 4 mps 706 mmHg 78%
    09:00 +10°C° 0.6 mm 4 mps 706 mmHg 83%
    10:00 +8°C° 0.6 mm 5 mps 707 mmHg 88%
    11:00 +8°C° 0.2 mm 5 mps 707 mmHg 86%
    12:00 +8°C° 0.2 mm 5 mps 706 mmHg 84%
    13:00 +8°C° 0.2 mm 5 mps 706 mmHg 82%
    14:00 +9°C° 0.1 mm 5 mps 707 mmHg 79%
    15:00 +9°C° 0.1 mm 5 mps 707 mmHg 76%
    16:00 +9°C° 0.1 mm 5 mps 707 mmHg 73%
    17:00 +8°C° 0.1 mm 4 mps 708 mmHg 77%
    18:00 +7°C° 0.1 mm 4 mps 708 mmHg 81%
    19:00 +7°C° 0.1 mm 3 mps 709 mmHg 84%
    20:00 +7°C° 0 mm 3 mps 709 mmHg 84%
    21:00 +5°C° 0 mm 3 mps 709 mmHg 83%
    22:00 +5°C° 0 mm 3 mps 710 mmHg 82%
    23:00 +5°C° 0 mm 3 mps 710 mmHg 82%
    Show more